Stoneville, NC

6:51 AM EDT on September 29, 2016 (GMT -0400)
Reidsville

Weather History for KSIF - April, 2013

Change the Weather History Date:

Tuesday, April 9, 2013

  Actual Average (KGSO) Record (KGSO)
Temperature  
Mean Temperature 67 °F 57 °F  
Max Temperature 84 °F 69 °F 87 °F (2001)
Min Temperature 50 °F 46 °F 23 °F (1972)
Degree Days  
Heating Degree Days 0 9  
Month to date heating degree days 88  
Since 1 July heating degree days 3413  
Cooling Degree Days 2 1  
Month to date cooling degree days 8  
Year to date cooling degree days 13  
Growing Degree Days 17 (Base 50)    
Moisture  
Dew Point 52 °F    
Average Humidity 56    
Maximum Humidity 93    
Minimum Humidity 30    
Precipitation  
Precipitation 0.00 in 0.13 in 2.25 in (1934)
Month to date precipitation 1.10  
Year to date precipitation 10.85  
Snow  
Snow 0.00 in 0.00 in 0.00 in (2002)
Month to date snowfall 0.1  
Since 1 July snowfall 7.6  
Snow Depth -    
Sea Level Pressure  
Sea Level Pressure 30.11 in    
Wind  
Wind Speed 4 mph (SW)    
Max Wind Speed 14 mph    
Max Gust Speed 18 mph    
Visibility 10 miles    
Events      
T = Trace of Precipitation, MM = Missing Value Source: NWS Daily Summary

Daily Weather History Graph

Daily Weather History Graph

Search for Another Location

Airport or City:

Trip Planner

Search our weather history database for the weather conditions in past years. The results will help you decide how hot, cold, wet, or windy it might be!

Date:

Astronomy

Apr. 09, 2013 Rise Set
Actual Time 6:53 AM EDT 7:48 PM EDT
Civil Twilight 6:27 AM EDT 8:14 PM EDT
Nautical Twilight 5:56 AM EDT 8:46 PM EDT
Astronomical Twilight 5:24 AM EDT 9:18 PM EDT
Moon 6:14 AM EDT (4/9) 7:22 PM EDT (4/9)
Length of Visible Light 13h 47m
Length of Day
12h 54m
Waning Crescent, 1% of the Moon is Illuminated
Apr 9
Waning Crescent
Apr 10
New
Apr 18
First Quarter
Apr 25
Full
May 2
Last Quarter

Hourly Weather History & Observations

Time (EDT) Temp. Dew Point Humidity Pressure Visibility Wind Dir Wind Speed Gust Speed Precip Events Conditions
12:15 AM 63.5 °F 50.5 °F 63% 30.08 in 10.0 mi WSW 3.5 mph - N/A   Clear
12:35 AM 62.6 °F 50.9 °F 66% 30.09 in 10.0 mi SW 3.5 mph - N/A   Clear
12:55 AM 63.3 °F 50.7 °F 63% 30.09 in 10.0 mi SSW 3.5 mph - N/A   Clear
1:15 AM 62.8 °F 50.4 °F 64% 30.09 in 10.0 mi SSW 3.5 mph - N/A   Clear
1:35 AM 63.0 °F 50.4 °F 63% 30.09 in 10.0 mi SSW 4.6 mph - N/A   Clear
2:15 AM 61.9 °F 50.2 °F 65% 30.10 in 10.0 mi Calm Calm - N/A   Clear
2:35 AM 57.0 °F 49.8 °F 77% 30.10 in 10.0 mi Calm Calm - N/A   Clear
2:55 AM 54.7 °F 49.8 °F 84% 30.10 in 10.0 mi Calm Calm - N/A   Clear
3:15 AM 53.4 °F 49.6 °F 87% 30.10 in 10.0 mi Calm Calm - N/A   Clear
3:35 AM 53.6 °F 49.5 °F 86% 30.10 in 10.0 mi Calm Calm - N/A   Clear
3:55 AM 51.4 °F 48.9 °F 91% 30.11 in 10.0 mi Calm Calm - N/A   Clear
4:15 AM 54.0 °F 49.6 °F 85% 30.11 in 10.0 mi Calm Calm - N/A   Clear
4:35 AM 51.8 °F 49.1 °F 90% 30.11 in 10.0 mi Calm Calm - N/A   Clear
4:55 AM 50.2 °F 48.2 °F 93% 30.12 in 10.0 mi Calm Calm - N/A   Clear
5:15 AM 52.2 °F 49.6 °F 91% 30.12 in 10.0 mi Calm Calm - N/A   Clear
5:35 AM 53.2 °F 49.3 °F 86% 30.13 in 10.0 mi Calm Calm - N/A   Clear
5:55 AM 51.4 °F 48.4 °F 89% 30.13 in 10.0 mi Calm Calm - N/A   Clear
6:15 AM 53.8 °F 49.5 °F 85% 30.14 in 10.0 mi Calm Calm - N/A   Clear
6:35 AM 54.0 °F 49.1 °F 84% 30.15 in 10.0 mi Calm Calm - N/A   Clear
6:55 AM 53.2 °F 49.6 °F 88% 30.15 in 10.0 mi SSW 3.5 mph - N/A   Clear
7:15 AM 53.4 °F 49.6 °F 87% 30.16 in 10.0 mi SW 4.6 mph - N/A   Clear
7:35 AM 55.0 °F 50.7 °F 85% 30.16 in 10.0 mi SW 3.5 mph - N/A   Clear
7:55 AM 57.2 °F 51.6 °F 82% 30.17 in 10.0 mi SW 3.5 mph - N/A   Clear
8:15 AM 58.8 °F 52.3 °F 79% 30.17 in 10.0 mi WSW 4.6 mph - N/A   Clear
8:35 AM 60.8 °F 53.1 °F 76% 30.18 in 10.0 mi WSW 6.9 mph - N/A   Clear
8:55 AM 62.8 °F 53.6 °F 72% 30.18 in 10.0 mi WSW 9.2 mph - N/A   Clear
9:35 AM 65.7 °F 54.0 °F 66% 30.18 in 10.0 mi SW 6.9 mph - N/A   Clear
9:55 AM 66.9 °F 54.0 °F 63% 30.19 in 10.0 mi SW 5.8 mph - N/A   Clear
10:15 AM 69.1 °F 54.3 °F 59% 30.19 in 10.0 mi SW 5.8 mph - N/A   Clear
10:35 AM 70.9 °F 54.5 °F 56% 30.19 in 10.0 mi SSW 5.8 mph - N/A   Clear
10:55 AM 73.2 °F 54.0 °F 51% 30.19 in 10.0 mi WSW 8.1 mph - N/A   Clear
11:15 AM 74.1 °F 54.1 °F 50% 30.19 in 10.0 mi SW 3.5 mph - N/A   Clear
11:35 AM 75.9 °F 53.6 °F 46% 30.18 in 10.0 mi South 6.9 mph - N/A   Clear
11:55 AM 77.9 °F 52.7 °F 41% 30.17 in 10.0 mi SW 6.9 mph - N/A   Clear
12:15 PM 79.7 °F 52.0 °F 38% 30.16 in 10.0 mi West 4.6 mph - N/A   Clear
12:35 PM 80.1 °F 52.5 °F 38% 30.16 in 10.0 mi WSW 9.2 mph - N/A   Clear
12:55 PM 80.6 °F 51.1 °F 36% 30.15 in 10.0 mi WSW 3.5 mph - N/A   Clear
1:15 PM 81.0 °F 50.2 °F 34% 30.14 in 10.0 mi SSW 6.9 mph - N/A   Clear
1:35 PM 81.7 °F 51.1 °F 34% 30.14 in 10.0 mi South 6.9 mph - N/A   Clear
1:55 PM 81.9 °F 50.5 °F 34% 30.13 in 10.0 mi South 8.1 mph - N/A   Clear
2:15 PM 81.7 °F 50.0 °F 33% 30.12 in 10.0 mi South 3.5 mph - N/A   Clear
2:35 PM 83.5 °F 51.1 °F 32% 30.11 in 10.0 mi West 4.6 mph - N/A   Clear
2:55 PM 84.0 °F 50.9 °F 32% 30.11 in 10.0 mi SSW 8.1 mph - N/A   Clear
3:15 PM 83.7 °F 50.4 °F 31% 30.10 in 10.0 mi SSW 12.7 mph 16.1 mph N/A   Clear
3:35 PM 84.4 °F 50.9 °F 31% 30.08 in 10.0 mi WSW 10.4 mph - N/A   Clear
3:55 PM 84.4 °F 50.0 °F 30% 30.08 in 10.0 mi SW 10.4 mph 18.4 mph N/A   Clear
4:15 PM 84.4 °F 49.8 °F 30% 30.07 in 10.0 mi WSW 9.2 mph 16.1 mph N/A   Clear
4:35 PM 84.6 °F 50.4 °F 31% 30.07 in 10.0 mi WSW 10.4 mph 17.3 mph N/A   Clear
4:55 PM 84.2 °F 49.8 °F 30% 30.07 in 10.0 mi SW 13.8 mph 18.4 mph N/A   Clear
5:15 PM 84.6 °F 50.7 °F 31% 30.07 in 10.0 mi SSW 9.2 mph 17.3 mph N/A   Clear
5:35 PM 84.2 °F 50.2 °F 31% 30.06 in 10.0 mi SSW 11.5 mph 18.4 mph N/A   Clear
5:55 PM 83.7 °F 51.1 °F 32% 30.06 in 10.0 mi SSW 11.5 mph - N/A   Clear
6:15 PM 83.3 °F 50.9 °F 32% 30.06 in 10.0 mi SW 10.4 mph - N/A   Clear
6:35 PM 82.6 °F 49.5 °F 31% 30.06 in 10.0 mi SW 10.4 mph - N/A   Clear
6:55 PM 81.5 °F 50.7 °F 34% 30.06 in 10.0 mi WSW 9.2 mph - N/A   Clear
7:15 PM 80.6 °F 51.4 °F 36% 30.06 in 10.0 mi SW 8.1 mph - N/A   Clear
7:35 PM 78.8 °F 52.3 °F 40% 30.06 in 10.0 mi SW 5.8 mph - N/A   Clear
7:55 PM 77.9 °F 52.7 °F 41% 30.06 in 10.0 mi SW 3.5 mph - N/A   Clear
8:15 PM 76.8 °F 52.9 °F 43% 30.07 in 10.0 mi SW 3.5 mph - N/A   Clear
8:35 PM 75.7 °F 53.6 °F 46% 30.06 in 10.0 mi SSW 3.5 mph - N/A   Clear
8:55 PM 75.2 °F 53.6 °F 47% 30.07 in 10.0 mi SSW 3.5 mph - N/A   Clear
9:15 PM 72.7 °F 54.3 °F 52% 30.08 in 10.0 mi Calm Calm - N/A   Clear
9:35 PM 71.1 °F 54.5 °F 56% 30.08 in 10.0 mi SSW 3.5 mph - N/A   Clear
9:55 PM 71.1 °F 54.7 °F 56% 30.09 in 10.0 mi Calm Calm - N/A   Clear
10:35 PM 71.4 °F 54.9 °F 56% 30.08 in 10.0 mi SW 3.5 mph - N/A   Clear
10:55 PM 71.6 °F 54.9 °F 55% 30.08 in 10.0 mi SSW 3.5 mph - N/A   Clear
11:15 PM 71.4 °F 54.9 °F 56% 30.08 in 10.0 mi SSW 3.5 mph - N/A   Clear
11:35 PM 70.3 °F 55.0 °F 58% 30.07 in 10.0 mi Calm Calm - N/A   Clear
11:55 PM 70.2 °F 54.9 °F 58% 30.06 in 10.0 mi SSW 4.6 mph - N/A   Clear